Location: Newark
(42.7133°N, 87.7910°W)
Time: 17:23:12
(UTC+00:00)

Vanguard 2 - All Passes

Search period start: 23 September 2019 00:00
Search period end: 03 October 2019 00:00
Orbit: 554 x 2937 km, 32.9° (Epoch: 23 September)

Date Brightness Start Highest point End Pass type
(mag) Time Alt. Az. Time Alt. Az. Time Alt. Az.
23 Sep - 05:34:15 10° S 05:45:45 22° SSE 05:55:10 10° ESE visible
23 Sep - 07:42:05 10° SW 07:56:07 40° SSE 08:05:39 10° E visible
23 Sep - 09:53:39 10° WSW 10:06:01 48° S 10:13:37 10° ESE visible
23 Sep - 12:06:10 10° W 12:14:36 33° SSW 12:20:08 10° SE daylight
24 Sep - 05:50:15 10° SSW 06:03:33 29° SSE 06:14:03 10° E visible
24 Sep - 07:59:31 10° SW 08:14:03 46° SSE 08:23:40 10° E visible
24 Sep - 10:11:39 10° WSW 10:23:53 48° S 10:31:22 10° ESE visible
24 Sep - 12:24:29 10° W 12:32:10 27° SSW 12:37:25 10° SSE daylight
25 Sep - 04:02:46 10° SSE 04:11:03 15° SE 04:18:42 10° ESE night (unlit)
25 Sep - 06:06:51 10° SSW 06:21:24 35° SSE 06:32:32 10° E visible
25 Sep - 08:17:10 10° WSW 08:31:59 50° S 08:41:37 10° ESE visible
25 Sep - 10:29:43 10° W 10:41:42 46° SSW 10:49:04 10° ESE visible
25 Sep - 12:42:59 10° W 12:49:38 22° SW 12:54:26 10° SSE daylight
26 Sep - 04:17:17 10° S 04:28:42 21° SE 04:38:55 10° ESE night (unlit)
26 Sep - 06:23:50 10° SW 06:39:16 41° SSE 06:50:46 10° E visible
26 Sep - 08:35:00 10° WSW 08:49:55 52° S 08:59:29 10° ESE visible
26 Sep - 10:47:52 10° W 10:59:25 42° SSW 11:06:38 10° SE visible
26 Sep - 13:01:54 10° WSW 13:06:59 16° SW 13:10:57 10° S daylight
27 Sep - 04:33:00 10° SSW 04:46:22 27° SSE 04:58:05 10° E visible
27 Sep - 06:41:08 10° SW 06:57:10 47° SSE 07:08:53 10° E visible
27 Sep - 08:52:57 10° WSW 09:07:50 54° S 09:17:19 10° ESE visible
27 Sep - 11:06:06 10° W 11:17:04 37° SSW 11:24:05 10° SE visible
27 Sep - 13:22:01 10° WSW 13:24:14 11° SW 13:26:12 10° SSW daylight
28 Sep - 02:48:02 10° SSE 02:54:01 13° SE 02:59:56 10° ESE visible
28 Sep - 04:49:20 10° SSW 05:04:05 34° SSE 05:16:45 10° E visible
28 Sep - 06:58:41 10° WSW 07:15:05 51° SSE 07:26:52 10° E visible
28 Sep - 09:11:00 10° WSW 09:25:43 53° S 09:35:04 10° ESE visible
28 Sep - 11:24:27 10° W 11:34:36 31° SSW 11:41:20 10° SSE daylight
29 Sep - 03:01:24 10° S 03:11:29 18° SE 03:21:23 10° ESE visible
29 Sep - 05:06:09 10° SW 05:21:50 40° SSE 05:35:08 10° E visible
29 Sep - 07:16:24 10° WSW 07:33:02 55° S 07:44:48 10° E visible
29 Sep - 09:29:07 10° W 09:43:32 50° SSW 09:52:43 10° ESE visible
29 Sep - 11:42:59 10° W 11:52:01 25° SW 11:58:19 10° SSE daylight
30 Sep - 03:16:38 10° S 03:28:59 24° SE 03:41:03 10° E visible
30 Sep - 05:23:17 10° SW 05:39:40 46° SSE 05:53:20 10° E visible
30 Sep - 07:34:16 10° WSW 07:50:59 57° S 08:02:41 10° ESE visible
30 Sep - 09:47:17 10° W 10:01:16 46° SSW 10:10:16 10° SE visible
30 Sep - 12:01:52 10° W 12:09:19 19° SW 12:14:52 10° S daylight
01 Oct - 03:32:43 10° SSW 03:46:32 31° SE 04:00:00 10° E visible
01 Oct - 05:40:42 10° SW 05:57:32 51° SSE 06:11:25 10° E visible
01 Oct - 07:52:16 10° WSW 08:08:55 57° S 08:20:31 10° ESE visible
01 Oct - 10:05:33 10° W 10:18:54 40° SSW 10:27:41 10° SE visible
01 Oct - 12:21:31 10° WSW 12:26:30 14° SW 12:30:38 10° SSW daylight
02 Oct - 01:47:05 10° SSE 01:54:25 14° SE 02:02:05 10° ESE visible
02 Oct - 03:49:19 10° SSW 04:04:08 37° SSE 04:18:34 10° E visible
02 Oct - 05:58:19 10° WSW 06:15:27 55° S 06:29:25 10° E visible
02 Oct - 08:10:19 10° W 08:26:49 56° S 08:38:16 10° ESE visible
02 Oct - 10:23:55 10° W 10:36:25 34° SSW 10:44:54 10° SSE visible
